Weather History for KHTS - October, 2014

Change the Weather History Date:

Wednesday, October 15, 2014

  Actual Average Record
Temperature  
Mean Temperature 59 °F 57 °F  
Max Temperature 64 °F 68 °F 85 °F (1956)
Min Temperature 53 °F 45 °F 28 °F (1937)
Degree Days  
Heating Degree Days 6 9  
Month to date heating degree days 105 104  
Since 1 July heating degree days 162 162  
Cooling Degree Days 0 0  
Month to date cooling degree days 10 16  
Year to date cooling degree days 971 1127  
Growing Degree Days 9 (Base 50)    
Moisture  
Dew Point 54 °F    
Average Humidity 89    
Maximum Humidity 100    
Minimum Humidity 78    
Precipitation  
Precipitation 0.10 in 0.08 in 1.10 in (1919)
Month to date precipitation 3.71 1.31  
Year to date precipitation 41.31 34.34  
Snow  
Snow 0.00 in - - ()
Month to date snowfall 0.0  
Since 1 September snowfall 0.0  
Snow Depth 0.00 in    
Sea Level Pressure  
Sea Level Pressure 29.80 in    
Wind  
Wind Speed 4 mph (South)    
Max Wind Speed 16 mph    
Max Gust Speed 24 mph    
Visibility 8 miles    
Events Fog , Rain    
T = Trace of Precipitation, MM = Missing Value Source: NWS Daily Summary

Daily Weather History Graph

Daily Weather History Graph

Search for Another Location

Airport or City:

Trip Planner

Search our weather history database for the weather conditions in past years. The results will help you decide how hot, cold, wet, or windy it might be!

Date:

Astronomy

Oct. 15, 2014 Rise Set
Actual Time 7:39 AM EDT 6:52 PM EDT
Civil Twilight 7:12 AM EDT 7:18 PM EDT
Nautical Twilight 6:41 AM EDT 7:49 PM EDT
Astronomical Twilight 6:11 AM EDT 8:20 PM EDT
Moon 12:00 AM EDT (10/15) 2:18 PM EDT (10/15)
Length of Visible Light 12h 06m
Length of Day
11h 13m
Waning Gibbous, 51% of the Moon is Illuminated
Oct 15
Waning Gibbous
Oct 15
Last Quarter
Oct 23
New
Oct 30
First Quarter
Nov 6
Full

Hourly Weather History & Observations

Time (EDT) Temp. Dew Point Humidity Pressure Visibility Wind Dir Wind Speed Gust Speed Precip Events Conditions
12:51 AM 59.0 °F 57.9 °F 96% 29.80 in 10.0 mi South 5.8 mph - N/A   Mostly Cloudy
1:51 AM 57.2 °F 57.2 °F 100% 29.81 in 10.0 mi SSW 4.6 mph - N/A   Clear
2:51 AM 57.0 °F 55.9 °F 96% 29.81 in 10.0 mi South 3.5 mph - N/A   Scattered Clouds
3:51 AM 55.9 °F 55.9 °F 100% 29.80 in 10.0 mi ESE 3.5 mph - N/A   Scattered Clouds
4:51 AM 55.0 °F 55.0 °F 100% 29.80 in 10.0 mi SE 4.6 mph - N/A   Mostly Cloudy
5:51 AM 55.0 °F 54.0 °F 96% 29.81 in 10.0 mi SE 3.5 mph - N/A   Mostly Cloudy
6:13 AM 54.0 °F 54.0 °F 100% 29.82 in 1.8 mi East 4.6 mph - N/A   Mostly Cloudy
6:20 AM 54.0 °F 54.0 °F 100% 29.82 in 0.2 mi Calm Calm - N/A Fog Fog
6:30 AM 54.0 °F 54.0 °F 100% 29.82 in 1.0 mi Calm Calm - N/A   Overcast
6:34 AM 54.0 °F 54.0 °F 100% 29.82 in 4.0 mi Calm Calm - N/A   Overcast
6:51 AM 54.0 °F 54.0 °F 100% 29.81 in 6.0 mi Calm Calm - N/A   Overcast
7:12 AM 54.0 °F 54.0 °F 100% 29.81 in 1.8 mi Calm Calm - N/A   Overcast
7:23 AM 54.0 °F 54.0 °F 100% 29.82 in 3.0 mi Calm Calm - N/A   Overcast
7:29 AM 54.0 °F 54.0 °F 100% 29.81 in 1.8 mi East 3.5 mph - N/A   Overcast
7:40 AM 54.0 °F 54.0 °F 100% 29.81 in 3.0 mi ESE 3.5 mph - N/A   Overcast
7:51 AM 54.0 °F 54.0 °F 100% 29.81 in 4.0 mi Calm Calm - N/A   Overcast
8:51 AM 55.0 °F 55.0 °F 100% 29.81 in 10.0 mi Calm Calm - N/A   Mostly Cloudy
9:51 AM 57.0 °F 55.9 °F 96% 29.81 in 10.0 mi SSE 3.5 mph - N/A   Mostly Cloudy
10:51 AM 57.0 °F 55.0 °F 93% 29.82 in 10.0 mi South 4.6 mph - N/A   Mostly Cloudy
11:51 AM 59.0 °F 55.0 °F 87% 29.80 in 10.0 mi South 8.1 mph - N/A   Overcast
12:51 PM 61.0 °F 54.0 °F 78% 29.80 in 10.0 mi South 6.9 mph - N/A   Overcast
1:51 PM 57.0 °F 53.1 °F 87% 29.78 in 7.0 mi South 3.5 mph - 0.03 in Rain Light Rain
2:51 PM 61.0 °F 55.0 °F 81% 29.76 in 7.0 mi WSW 3.5 mph - 0.02 in Rain Light Rain
3:51 PM 62.1 °F 51.1 °F 67% 29.75 in 10.0 mi South 9.2 mph - 0.01 in   Mostly Cloudy
4:51 PM 59.0 °F 54.0 °F 83% 29.77 in 10.0 mi West 4.6 mph - 0.00 in   Mostly Cloudy
5:51 PM 57.9 °F 54.0 °F 87% 29.77 in 10.0 mi WSW 3.5 mph - 0.01 in   Partly Cloudy
6:51 PM 57.9 °F 53.1 °F 84% 29.78 in 10.0 mi Calm Calm - N/A   Overcast
7:51 PM 57.0 °F 53.1 °F 87% 29.78 in 10.0 mi SW 3.5 mph - N/A   Overcast
8:51 PM 55.0 °F 52.0 °F 89% 29.79 in 8.0 mi South 6.9 mph - 0.00 in Rain Light Rain
9:51 PM 54.0 °F 53.1 °F 97% 29.80 in 10.0 mi SSW 5.8 mph - 0.01 in Rain Light Rain
10:51 PM 54.0 °F 53.1 °F 97% 29.79 in 10.0 mi SSW 5.8 mph - 0.01 in Rain Light Rain
11:51 PM 53.1 °F 53.1 °F 100% 29.78 in 10.0 mi South 3.5 mph - 0.01 in Rain Light Rain